Regional Weather Roundup
Issued by NWS Little Rock, AR

Home | Current Version | Previous Version | Graphics & Text | Print | Product List | Glossary On
Versions: 1 2 3 4 5 6 7 8 9 10 11 12 13 14 15 16 17 18 19 20 21 22 23 24 25 26 27 28 29 30 31 32
000
ASUS44 KLZK 072305
RWRLZK

WEATHER ROUNDUP FOR ARKANSAS
NATIONAL WEATHER SERVICE LITTLE ROCK AR
500 PM CST WED DEC 07 2016

NOTE: "FAIR" INDICATES FEW OR NO CLOUDS BELOW 12,000 FEET WITH NO
SIGNIFICANT WEATHER AND/OR OBSTRUCTIONS TO VISIBILITY.

ARZ001-003-010-029-080000-
NORTHWEST ARKANSAS

CITY           SKY/WX    TMP DP  RH WIND       PRES   REMARKS
FAYETTEVILLE   CLOUDY    30  29  96 NE3       30.23R FOG
FORT SMITH     CLOUDY    36  34  92 NE6       30.25R FOG
HARRISON       CLOUDY    34  21  59 N5        30.23R WCI  30
BENTONVILLE    CLOUDY    36  16  44 NE12      30.24R
ROGERS         CLOUDY    34  18  52 NE7       30.24R WCI  28
SILOAM SPGS    CLOUDY    30  27  86 CALM      30.24R
HIGHFILL       CLOUDY    36  20  52 NE8       30.23R
SPRINGDALE     CLOUDY    32  27  80 E6        30.25R WCI  26
$$

ARZ004-005-016-080000-
NORTH CENTRAL ARKANSAS

CITY           SKY/WX    TMP DP  RH WIND       PRES   REMARKS
BATESVILLE     CLOUDY    39  21  48 CALM      30.24R
FLIPPIN        CLOUDY    37  18  44 N3        30.22R
MTN HOME       CLOUDY    36  21  54 CALM      30.23R
$$

ARZ040-041-080000-
WEST CENTRAL ARKANSAS

CITY           SKY/WX    TMP DP  RH WIND       PRES   REMARKS
MENA           CLOUDY    39  37  93 N9        30.18R
MOUNT IDA      CLOUDY    39  37  92 VRB3      30.17R FOG
$$

ARZ009-017-025-026-028-080000-
NORTHEAST ARKANSAS

CITY           SKY/WX    TMP DP  RH WIND       PRES   REMARKS
CORNING        CLOUDY    41  27  56 N3        30.24R
JONESBORO      CLOUDY    42  29  59 NE3       30.22R
NEWPORT        CLOUDY    40  29  64 N7          N/A
WALNUT RIDGE   CLOUDY    39  25  56 N5        30.23R
BLYTHEVILLE    CLOUDY    43  32  65 N9        30.22R
$$

ARZ022-023-033-042-044-080000-
CENTRAL ARKANSAS

CITY           SKY/WX    TMP DP  RH WIND       PRES   REMARKS
LITTLE ROCK    CLOUDY    41  33  73 N6        30.22R
JACKSONVILLE   CLOUDY    42  32  69 N5        30.21R
SEARCY         CLOUDY    41  30  65 N8        30.24R
HOT SPRINGS    CLOUDY    40  35  83 NE7       30.20R
RUSSELLVILLE   CLOUDY    37  32  82 NE3       30.23R HAZE
CLINTON        CLOUDY    37  27  65 CALM      30.24R
$$

ARZ036-080000-
EAST ARKANSAS

CITY           SKY/WX    TMP DP  RH WIND       PRES   REMARKS
WEST MEMPHIS   CLOUDY    44  34  67 N6        30.20R
$$

ARZ050-053-066-070-073-080000-
SOUTHWEST ARKANSAS

CITY           SKY/WX    TMP DP  RH WIND       PRES   REMARKS
ARKADELPHIA    CLOUDY    42  38  85 NE6       30.21R
CAMDEN         CLOUDY    45  39  81 N7        30.19R HAZE
TEXARKANA      CLOUDY    45  41  86 NE8       30.16R
EL DORADO      CLOUDY    47  44  90 N7        30.16R
DE QUEEN       CLOUDY    42  42 100 NE8       30.16R FOG
$$

ARZ056-057-069-080000-
SOUTHEAST ARKANSAS

CITY           SKY/WX    TMP DP  RH WIND       PRES   REMARKS
PINE BLUFF     CLOUDY    44  38  79 N7        30.20R
STUTTGART      CLOUDY    43  32  65 N10       30.21R
MONTICELLO     CLOUDY    47  40  76 CALM      30.17R

$$






USA.gov is the U.S. government's official web portal to all federal, state and local government web resources and services.